This is the latest recevied weather packets stored in our database for station/object W5GGH. If no packets are shown the sender has not sent any weather packets the latest 1 day(s).
| Time | Temp. | Humidity | Pressure | Rain* | Wind** | Luminosity | Snow |
|---|---|---|---|---|---|---|---|
| 1778036818 | 20.56° C | 69% | 1024.8 hPa | 0 mm | 2.68 m/s, 29° | 0 W/m² | - |
| 1778036515 | 20.56° C | 69% | 1024.9 hPa | 0 mm | 1.34 m/s, 343° | 0 W/m² | - |
| 1778036211 | 21.11° C | 68% | 1024.8 hPa | 0 mm | 1.79 m/s, 35° | 0 W/m² | - |
| 1778035908 | 21.11° C | 68% | 1024.6 hPa | 0 mm | 1.34 m/s, 16° | 0 W/m² | - |
| 1778035606 | 21.11° C | 68% | 1024.8 hPa | 0 mm | 0.89 m/s, 29° | 0 W/m² | - |
| 1778035302 | 21.11° C | 68% | 1024.8 hPa | 0 mm | 1.34 m/s, 324° | 0 W/m² | - |
| 1778034998 | 21.11° C | 68% | 1024.6 hPa | 0 mm | 1.79 m/s, 316° | 0 W/m² | - |
| 1778034695 | 21.67° C | 67% | 1024.4 hPa | 0 mm | 1.79 m/s, 348° | 0 W/m² | - |
| 1778034393 | 21.67° C | 67% | 1024.4 hPa | 0 mm | 2.24 m/s, 12° | 0 W/m² | - |
| 1778034090 | 21.67° C | 67% | 1024.4 hPa | 0 mm | 1.79 m/s, 32° | 0 W/m² | - |
| 1778033788 | 22.22° C | 67% | 1024.2 hPa | 0 mm | 1.79 m/s, 49° | 0 W/m² | - |
| 1778033485 | 22.22° C | 67% | 1024.2 hPa | 0 mm | 0.89 m/s, 9° | 0 W/m² | - |
| 1778033182 | 22.22° C | 67% | 1024 hPa | 0 mm | 1.34 m/s, 321° | 0 W/m² | - |
| 1778032879 | 22.78° C | 66% | 1023.9 hPa | 0 mm | 1.79 m/s, 41° | 0 W/m² | - |
| 1778032577 | 22.78° C | 66% | 1023.9 hPa | 0 mm | 2.24 m/s, 36° | 0 W/m² | - |
| 1778032274 | 22.78° C | 65% | 1023.6 hPa | 0 mm | 2.24 m/s, 49° | 0 W/m² | - |
| 1778031971 | 22.78° C | 65% | 1023.2 hPa | 0 mm | 1.34 m/s, 2° | 0 W/m² | - |
| 1778031666 | 23.33° C | 64% | 1023.3 hPa | 0 mm | 1.79 m/s, 346° | 0 W/m² | - |
| 1778031365 | 23.33° C | 65% | 1023.2 hPa | 0 mm | 1.79 m/s, 23° | 0 W/m² | - |
| 1778031062 | 23.33° C | 65% | 1022.9 hPa | 0 mm | 0.89 m/s, 10° | 0 W/m² | - |
| 1778030758 | 23.33° C | 65% | 1022.8 hPa | 0 mm | 1.34 m/s, 330° | 0 W/m² | - |
| 1778030454 | 23.33° C | 65% | 1022.7 hPa | 0 mm | 1.34 m/s, 34° | 0 W/m² | - |
| 1778030152 | 23.33° C | 65% | 1022.3 hPa | 0 mm | 0.89 m/s, 359° | 1 W/m² | - |
| 1778029848 | 23.89° C | 64% | 1022.2 hPa | 0 mm | 0.45 m/s, 336° | 2 W/m² | - |
| 1778029548 | 23.89° C | 64% | 1022.5 hPa | 0 mm | 0.89 m/s, 327° | 4 W/m² | - |
* Rain latest hour (hover to see other rain measurements)
** Current wind speed in m/s (hover to see current wind gust speed)